York, NE

1:55 AM CST on December 10, 2019 (GMT -0600)
York Municipal

Weather History for KJYR - October, 2019

Change the Weather History Date:

Sunday, October 20, 2019

  Actual Average Record
Temperature  
Mean Temperature 52 °F -  
Max Temperature 60 °F 64 °F 91 °F (1978)
Min Temperature 44 °F 39 °F 20 °F (1960)
Degree Days  
Heating Degree Days 13    
Growing Degree Days 2 (Base 50)    
Moisture  
Dew Point 42 °F    
Average Humidity 70    
Maximum Humidity 82    
Minimum Humidity 55    
Precipitation  
Precipitation 0.00 in - - ()
Sea Level Pressure  
Sea Level Pressure 29.65 in    
Wind  
Wind Speed 10 mph (South)    
Max Wind Speed 22 mph    
Max Gust Speed 30 mph    
Visibility 10 miles    
Events Rain    
Averages and records for this station are not official NWS values.
T = Trace of Precipitation, MM = Missing Value Source: NWS Daily Summary

Daily Weather History Graph

Daily Weather History Graph

Search for Another Location

Airport or City:

Astronomy

Oct. 20, 2019 Rise Set
Actual Time 7:47 AM CDT 6:42 PM CDT
Civil Twilight 7:19 AM CDT 7:10 PM CDT
Nautical Twilight 6:47 AM CDT 7:42 PM CDT
Astronomical Twilight 6:15 AM CDT 8:14 PM CDT
Moon 11:51 PM CDT (10/20) 2:17 PM CDT (10/20)
Length of Visible Light 11h 51m
Length of Day
10h 55m
Waning Gibbous, 59% of the Moon is Illuminated
Oct 20
Waning Gibbous
Oct 21
Last Quarter
Oct 27
New
Nov 4
First Quarter
Nov 12
Full

Hourly Weather History & Observations

Time (CDT) Temp. Windchill Dew Point Humidity Pressure Visibility Wind Dir Wind Speed Gust Speed Precip Events Conditions
12:15 AM 46.4 °F 42.9 °F 35.6 °F 66% 29.78 in 10.0 mi SSE 6.9 mph - N/A   Clear
12:35 AM 46.4 °F 42.9 °F 35.6 °F 66% 29.78 in 10.0 mi SSE 6.9 mph - N/A   Clear
12:55 AM 44.6 °F 40.7 °F 35.6 °F 71% 29.78 in 10.0 mi South 6.9 mph - N/A   Clear
1:10 AM 44.6 °F 40.7 °F 35.6 °F 71% 29.78 in 10.0 mi South 6.9 mph - N/A   Clear
1:35 AM 46.4 °F 42.9 °F 35.6 °F 66% 29.76 in 10.0 mi SSE 6.9 mph - N/A   Clear
1:55 AM 46.4 °F 43.5 °F 37.4 °F 71% 29.76 in 10.0 mi SSE 5.8 mph - N/A   Clear
2:15 AM 44.6 °F 40.7 °F 37.4 °F 76% 29.76 in 10.0 mi SSE 6.9 mph - N/A   Clear
2:35 AM 46.4 °F 42.9 °F 37.4 °F 71% 29.76 in 10.0 mi SSE 6.9 mph - N/A   Clear
2:55 AM 44.6 °F 40.7 °F 37.4 °F 76% 29.76 in 10.0 mi SSE 6.9 mph - N/A   Clear
3:15 AM 44.6 °F - 37.4 °F 76% 29.76 in 10.0 mi Calm Calm - N/A   Clear
3:35 AM 44.6 °F 40.7 °F 37.4 °F 76% 29.75 in 10.0 mi SSE 6.9 mph - N/A   Clear
3:55 AM 44.6 °F 40.7 °F 37.4 °F 76% 29.74 in 10.0 mi South 6.9 mph - N/A   Clear
4:10 AM 44.6 °F 40.7 °F 37.4 °F 76% 29.74 in 10.0 mi South 6.9 mph - N/A   Clear
4:35 AM 46.4 °F 41.9 °F 37.4 °F 71% 29.74 in 10.0 mi South 9.2 mph - N/A   Clear
5:15 AM 46.4 °F 41.5 °F 39.2 °F 76% 29.73 in 10.0 mi SSE 10.4 mph - N/A   Clear
5:35 AM 48.2 °F - 39.2 °F 71% 29.73 in 10.0 mi South 11.5 mph - N/A   Clear
5:55 AM 48.2 °F - 39.2 °F 71% 29.72 in 10.0 mi SSE 10.4 mph - N/A   Clear
6:15 AM 48.2 °F - 39.2 °F 71% 29.73 in 10.0 mi SSE 10.4 mph - N/A   Clear
6:35 AM 50.0 °F - 41.0 °F 71% 29.71 in 10.0 mi SSE 11.5 mph - N/A   Clear
6:55 AM 50.0 °F - 41.0 °F 71% 29.70 in 10.0 mi SSE 10.4 mph - N/A   Clear
7:15 AM 50.0 °F - 41.0 °F 71% 29.70 in 10.0 mi SSE 10.4 mph - N/A   Clear
7:35 AM 50.0 °F - 41.0 °F 71% 29.69 in 10.0 mi SSE 9.2 mph - N/A   Clear
7:55 AM 50.0 °F - 41.0 °F 71% 29.68 in 10.0 mi SSE 10.4 mph - N/A   Clear
8:15 AM 50.0 °F - 41.0 °F 71% 29.67 in 10.0 mi SE 15.0 mph - N/A   Clear
8:35 AM 50.0 °F - 41.0 °F 71% 29.69 in 10.0 mi SSE 13.8 mph 18.4 mph N/A   Clear
8:55 AM 50.0 °F - 42.8 °F 76% 29.71 in 10.0 mi South 9.2 mph - N/A   Mostly Cloudy
9:15 AM 50.0 °F - 44.6 °F 82% 29.68 in 10.0 mi SE 13.8 mph - N/A   Mostly Cloudy
9:35 AM 53.6 °F - 44.6 °F 72% 29.68 in 10.0 mi SSE 12.7 mph - N/A   Scattered Clouds
9:55 AM 53.6 °F - 46.4 °F 77% 29.69 in 10.0 mi SSE 12.7 mph - N/A   Scattered Clouds
10:15 AM 55.4 °F - 46.4 °F 72% 29.68 in 10.0 mi North - - N/A   Scattered Clouds
10:35 AM 55.4 °F - 46.4 °F 72% 29.68 in 10.0 mi North - - N/A   Mostly Cloudy
10:55 AM 55.4 °F - 46.4 °F 72% 29.69 in 10.0 mi North - - N/A   Mostly Cloudy
11:15 AM 55.4 °F - 48.2 °F 77% 29.68 in 10.0 mi North - - N/A   Mostly Cloudy
11:35 AM 55.4 °F - 48.2 °F 77% 29.68 in 10.0 mi North - - N/A   Mostly Cloudy
11:55 AM 55.4 °F - 48.2 °F 77% 29.69 in 10.0 mi North - - N/A   Mostly Cloudy
12:15 PM 57.2 °F - 48.2 °F 72% 29.67 in 10.0 mi North - - N/A   Scattered Clouds
12:35 PM 57.2 °F - 50.0 °F 77% 29.65 in 10.0 mi SSE 12.7 mph - N/A   Partly Cloudy
12:55 PM 59.0 °F - 48.2 °F 67% 29.64 in 10.0 mi North - - N/A   Partly Cloudy
1:15 PM 59.0 °F - 46.4 °F 63% 29.63 in 10.0 mi SSE 21.9 mph 26.5 mph N/A   Mostly Cloudy
1:35 PM 59.0 °F - 46.4 °F 63% 29.62 in 10.0 mi SSE 19.6 mph 27.6 mph N/A   Overcast
1:55 PM 59.0 °F - 46.4 °F 63% 29.61 in 10.0 mi SSE 20.7 mph 29.9 mph N/A   Overcast
2:15 PM 59.0 °F - 46.4 °F 63% 29.61 in 10.0 mi SSE 20.7 mph 27.6 mph N/A   Overcast
2:35 PM 60.8 °F - 46.4 °F 59% 29.61 in 10.0 mi SSE 17.3 mph 23.0 mph N/A   Overcast
2:55 PM 60.8 °F - 46.4 °F 59% 29.59 in 10.0 mi South 21.9 mph 26.5 mph N/A   Overcast
3:15 PM 60.8 °F - 44.6 °F 55% 29.59 in 10.0 mi SSE 20.7 mph 27.6 mph N/A   Overcast
3:35 PM 59.0 °F - 44.6 °F 59% 29.59 in 10.0 mi South 18.4 mph 25.3 mph N/A   Overcast
3:55 PM 59.0 °F - 44.6 °F 59% 29.58 in 10.0 mi South 19.6 mph - N/A   Overcast
4:15 PM 59.0 °F - 44.6 °F 59% 29.57 in 10.0 mi North - - N/A   Overcast
4:35 PM 59.0 °F - 44.6 °F 59% 29.57 in 10.0 mi North - - N/A   Overcast
4:50 PM 59.0 °F - 44.6 °F 59% 29.57 in 10.0 mi South 19.6 mph 25.3 mph N/A   Overcast
5:15 PM 57.2 °F - 46.4 °F 67% 29.57 in 10.0 mi South 12.7 mph 18.4 mph N/A   Overcast
5:35 PM 57.2 °F - 48.2 °F 72% 29.58 in 9.0 mi SSW 11.5 mph - N/A Rain Light Rain
5:55 PM 55.4 °F - 48.2 °F 77% 29.58 in 10.0 mi South 17.3 mph 20.7 mph N/A Rain Light Rain
6:15 PM 57.2 °F - 48.2 °F 72% 29.57 in 10.0 mi SSE 12.7 mph - N/A   Overcast
6:35 PM 57.2 °F - 48.2 °F 72% 29.57 in 10.0 mi SSE 13.8 mph - N/A   Overcast
6:55 PM 57.2 °F - 48.2 °F 72% 29.58 in 10.0 mi South 10.4 mph - N/A   Overcast
7:15 PM 53.6 °F - 48.2 °F 82% 29.57 in 10.0 mi SSE 11.5 mph - N/A   Scattered Clouds
7:35 PM 55.4 °F - 48.2 °F 77% 29.57 in 10.0 mi South 9.2 mph - N/A   Partly Cloudy
7:55 PM 55.4 °F - 48.2 °F 77% 29.60 in 10.0 mi SSW 8.1 mph - N/A   Mostly Cloudy
8:15 PM 55.4 °F - 46.4 °F 72% 29.60 in 10.0 mi SSW 6.9 mph - N/A   Overcast
8:35 PM 53.6 °F - 44.6 °F 72% 29.60 in 10.0 mi SW 5.8 mph - N/A   Mostly Cloudy
8:55 PM 51.8 °F - 42.8 °F 71% 29.58 in 10.0 mi South 4.6 mph - N/A   Partly Cloudy
9:15 PM 50.0 °F - 39.2 °F 66% 29.57 in 10.0 mi SSW 5.8 mph - N/A   Clear
9:35 PM 48.2 °F - 35.6 °F 62% 29.56 in 10.0 mi SSW 5.8 mph - N/A   Clear
9:55 PM 46.4 °F 42.9 °F 35.6 °F 66% 29.56 in 10.0 mi South 6.9 mph - N/A   Scattered Clouds
10:15 PM 44.6 °F 41.4 °F 33.8 °F 66% 29.56 in 10.0 mi SSW 5.8 mph - N/A   Scattered Clouds
10:35 PM 44.6 °F 40.2 °F 32.0 °F 61% 29.55 in 10.0 mi SW 8.1 mph - N/A   Scattered Clouds
10:55 PM 44.6 °F 40.7 °F 32.0 °F 61% 29.55 in 10.0 mi SSW 6.9 mph - N/A   Scattered Clouds
11:15 PM 44.6 °F 40.7 °F 32.0 °F 61% 29.54 in 10.0 mi SW 6.9 mph - N/A   Mostly Cloudy
11:35 PM 44.6 °F 40.2 °F 32.0 °F 61% 29.53 in 10.0 mi SW 8.1 mph - N/A   Mostly Cloudy
11:55 PM 44.6 °F 39.2 °F 33.8 °F 66% 29.51 in 10.0 mi SW 10.4 mph - N/A   Partly Cloudy